Location: Brompton
(51.4000°N, 0.5333°E)
Time: 16:36:29
(UTC+00:00)

Cosmos 1833 Rocket - Pass Details

Date: 11 May 2021
Orbit: 831 x 841 km, 71.0° (Epoch: 24 June)

Event Time Altitude Azimuth Distance (km) Brightness Sun altitude
Rises 20:54:30 0° 329° (NNW) 3,407 7.8 -10.2°
Reaches altitude 10° 20:56:57 10° 328° (NNW) 2,469 6.6 -10.4°
Maximum altitude 21:02:38 82° 243° (WSW) 856 2.8 -11.0°
Enters shadow 21:07:31 14° 156° (SSE) 2,173 4.2 -11.5°
